• Join FlightAware (Why Join?)
  • Login
  • US Flag GB Flag 
10:48 EDT


 

Airport Tracker/Info


-or-


 

Live Flight TrackerFlight Track Log ✈ AAY876 ✈ 18-Mar-2014 ✈ KPIE - KCHA

Flight Track Log - Related Links

Times and Time Zones

All times are in EDT time to prevent confusion due to time zone crossing. See the AAY876 flight status page for this flight to view local times or setup timezone preferences in your user account.

Time Position Orientation Groundspeed Altitude Reporting Facility
EDT Latitude Longitude Course Direction KTS MPH feet Rate Location/Type
16:43 27.9333 -82.6833 350° North 138 159 800  Level Tampa TRACON
16:44 27.9833 -82.6667 16° North 224 258 1,600 720 Climbing Tampa TRACON
16:45 28.0500 -82.6500 12° North 242 278 2,500 2,100 Climbing Tampa TRACON
16:46 28.1333 -82.6333 10° North 269 310 6,300 3,000 Climbing Tampa TRACON
16:47 28.2000 -82.6167 12° North 274 315 8,600 1,920 Climbing Tampa TRACON
16:48 28.7836 -82.8667 350° North  Level FlightAware Approximate
16:49 28.3833 -82.6778 344° North 314 361 12,600  Level Jacksonville Center
16:50 28.4794 -82.7061 345° North 333 383 15,000 2,340 Climbing Jacksonville Center
16:51 28.5797 -82.7367 345° North 354 407 17,300 2,040 Climbing Jacksonville Center
16:52 28.6819 -82.7672 345° North 365 420 19,100 1,740 Climbing Jacksonville Center
16:53 28.7822 -82.7956 346° North 365 420 20,800 1,740 Climbing Jacksonville Center
16:54 28.8886 -82.8286 345° North 375 432 22,600 1,860 Climbing Jacksonville Center
16:55 28.9953 -82.8642 344° North 386 444 24,600 1,620 Climbing Jacksonville Center
16:56 29.1036 -82.8950 346° North 391 450 25,900 1,320 Climbing Jacksonville Center
16:57 29.2144 -82.9283 345° North 401 461 27,300 1,260 Climbing Jacksonville Center
16:58 29.3292 -82.9664 344° North 406 467 28,500 1,200 Climbing Jacksonville Center
16:59 29.4461 -83.0000 346° North 422 486 29,700 1,140 Climbing Jacksonville Center
17:00 29.5692 -83.0406 344° North 440 506 30,800 1,140 Climbing Jacksonville Center
17:01 29.6817 -83.0886 340° North 440 506 32,000 1,200 Climbing Jacksonville Center
17:02 29.7944 -83.1414 338° Northwest 435 501 33,200 1,320 Climbing Jacksonville Center
17:03 29.9028 -83.1922 338° Northwest 430 495 34,700 660 Climbing Jacksonville Center
17:09 30.5626 -83.4074 345° North 411 473 38,000 480 Climbing FlightAware ADS-B (KTLH)
17:10 30.6231 -83.4270 344° North 411 473 38,000  Level FlightAware ADS-B (KTLH)
17:10 30.6912 -83.4491 344° North 411 473 38,000  Level FlightAware ADS-B (KTLH)
17:12 30.8309 -83.4944 344° North 415 478 38,000  Level FlightAware ADS-B (KTLH)
17:13 30.9388 -83.5295 344° North 420 483 38,000  Level FlightAware ADS-B (KTLH)
17:13 30.9986 -83.5490 344° North 421 484 38,000 60 Level FlightAware ADS-B (KTLH)
17:14 31.0572 -83.5680 345° North 422 486 38,100 60 Climbing FlightAware ADS-B (KTLH)
17:15 31.1629 -83.6023 344° North 423 487 38,100  Level FlightAware ADS-B (KTLH)
17:16 31.2914 -83.6447 344° North 422 486 38,100 -60 Level FlightAware ADS-B (KTLH)
17:17 31.4164 -83.6883 344° North 413 475 38,000 -60 Descending Atlanta Center
17:18 31.5250 -83.7247 344° North 413 475 38,000  Level Atlanta Center
17:19 31.6211 -83.7561 344° North 413 475 38,000  Level Atlanta Center
17:20 31.7483 -83.8019 343° North 434 499 38,000  Level Atlanta Center
17:21 31.8592 -83.8333 346° North 434 499 38,000  Level Atlanta Center
17:22 31.9697 -83.8725 343° North 429 494 38,000  Level Atlanta Center
17:23 32.0825 -83.9089 345° North 416 479 38,000  Level Atlanta Center
17:24 32.1953 -83.9456 345° North 416 479 38,000  Level Atlanta Center
17:25 32.3061 -83.9847 343° North 416 479 38,000  Level Atlanta Center
17:26 32.4144 -84.0217 344° North 416 479 38,000 -300 Level Atlanta Center
17:27 32.5231 -84.0611 343° North 416 479 37,400 -1,500 Descending Atlanta Center
17:28 32.6275 -84.1078 339° North 411 473 35,100 -1,500 Descending Atlanta Center
17:29 32.7358 -84.1575 339° North 404 465 34,400 -600 Descending Atlanta Center
17:30 32.8528 -84.2194 336° Northwest 416 479 34,000 -240 Descending Atlanta Center
17:31 32.9633 -84.2642 341° North 423 487 34,000  Level Atlanta Center
17:32 33.0739 -84.3117 340° North 418 481 34,000 -300 Level Atlanta Center
17:33 33.1803 -84.3589 340° North 412 474 33,400 -1,200 Descending Atlanta Center
17:34 33.2906 -84.4092 339° North 417 480 31,600 -2,100 Descending Atlanta Center
17:35 33.4011 -84.4569 340° North 417 480 29,300 -2,220 Descending Atlanta Center
17:36 33.5053 -84.5047 339° North 411 473 27,200 -2,100 Descending Atlanta Center
17:37 33.6136 -84.5503 341° North 411 473 25,200 -1,620 Descending Atlanta Center
17:38 33.7200 -84.5983 339° North 411 473 24,000 -600 Descending Atlanta Center
17:39 33.8261 -84.6464 339° North 411 473 24,000  Level Atlanta Center
17:40 33.9367 -84.6947 340° North 411 473 24,000 -420 Level Atlanta Center
17:41 34.0239 -84.7356 339° North 411 473 23,200 -2,640 Descending Atlanta Center
17:42 34.1592 -84.7969 339° North 416 479 18,800 -3,600 Descending Atlanta Center
17:43 34.2653 -84.8456 339° North 416 479 16,000 -3,240 Descending Atlanta Center
17:44 34.3714 -84.8969 338° Northwest 408 470 12,400 -2,580 Descending Atlanta Center
17:45 34.4692 -84.9383 341° North 390 449 10,900 -720 Descending Atlanta Center
17:46 34.5608 -84.9822 338° Northwest 367 422 11,000 -420 Climbing Atlanta Center
17:47 34.6419 -85.0158 341° North 326 375 10,100 -1,860 Descending Atlanta Center
17:48 34.7106 -85.0597 332° Northwest 298 343 7,300 -2,760 Descending Atlanta Center
17:49 34.7747 -85.1161 324° Northwest 282 325 4,600 -2,280 Descending Atlanta Center
17:50 34.8306 -85.1622 326° Northwest 269 310 2,800 -1,080 Descending Atlanta Center
17:51 34.8825 -85.1933 334° Northwest 231 266 2,500 -300 Descending Atlanta Center
17:52 34.9219 -85.2142 337° Northwest 189 217 2,300 -360 Descending Atlanta Center
17:53 34.9636 -85.2275 345° North 162 186 1,800 -540 Descending Atlanta Center
17:55 35.0333 -85.2000 331° Northwest  Level FlightAware Approximate
18:02 35.0352 -85.2036 331° Northwest  Level Estimated
18:03 35.0333 -85.2000 331° Northwest  Level FlightAware Approximate
18:04 35.0352 -85.2036 331° Northwest  Level Estimated